Clinton-Sherman, OK

4:19 AM CDT on August 21, 2017 (GMT -0500)
Clinton-Sherman

Weather History for KCSM - December, 2014

Change the Weather History Date:

Saturday, December 27, 2014

  Actual Average Record
Temperature  
Mean Temperature 31 °F -  
Max Temperature 39 °F 47 °F 68 °F (2005)
Min Temperature 21 °F 27 °F 15 °F (2012)
Degree Days  
Heating Degree Days 34    
Moisture  
Dew Point 20 °F    
Average Humidity 63    
Maximum Humidity 82    
Minimum Humidity 38    
Precipitation  
Precipitation 0.00 in - - ()
Sea Level Pressure  
Sea Level Pressure 30.29 in    
Wind  
Wind Speed 16 mph (NNW)    
Max Wind Speed 25 mph    
Max Gust Speed 20 mph    
Visibility 8 miles    
Events Snow    
Averages and records for this station are not official NWS values.
T = Trace of Precipitation, MM = Missing Value Source: NWS Daily Summary

Daily Weather History Graph

Daily Weather History Graph

Search for Another Location

Airport or City:

Trip Planner

Search our weather history database for the weather conditions in past years. The results will help you decide how hot, cold, wet, or windy it might be!

Date:

Astronomy

Dec. 27, 2014 Rise Set
Actual Time 7:44 AM CST 5:31 PM CST
Civil Twilight 7:16 AM CST 5:59 PM CST
Nautical Twilight 6:44 AM CST 6:31 PM CST
Astronomical Twilight 6:13 AM CST 7:02 PM CST
Moon 11:45 AM CST (12/27) No Moon Set
Length of Visible Light 10h 43m
Length of Day
9h 47m
Waxing Crescent, 38% of the Moon is Illuminated
Dec 27
Waxing Crescent
Dec 28
First Quarter
Jan 4
Full
Jan 13
Last Quarter
Jan 20
New

Hourly Weather History & Observations

Time (CST) Temp. Windchill Dew Point Humidity Pressure Visibility Wind Dir Wind Speed Gust Speed Precip Events Conditions
12:53 AM 34.0 °F 21.3 °F 24.1 °F 67% 30.17 in 10.0 mi NNW 25.3 mph - N/A   Overcast
1:53 AM 33.1 °F 21.2 °F 23.0 °F 66% 30.19 in 10.0 mi North 20.7 mph - 0.00 in   Overcast
2:53 AM 33.1 °F 22.2 °F 23.0 °F 66% 30.21 in 10.0 mi North 17.3 mph - N/A   Overcast
3:07 AM 33.1 °F 23.0 °F 23.0 °F 66% 30.20 in 5.0 mi North 15.0 mph - 0.00 in Snow Light Snow
3:21 AM 33.1 °F 22.6 °F 23.0 °F 66% 30.21 in 5.0 mi North 16.1 mph - 0.00 in Snow Light Snow
3:53 AM 33.1 °F 23.0 °F 21.9 °F 64% 30.24 in 10.0 mi North 15.0 mph - 0.00 in   Overcast
4:53 AM 32.0 °F 22.5 °F 24.1 °F 73% 30.24 in 6.0 mi North 12.7 mph - 0.00 in   Haze
5:00 AM 30.9 °F 19.1 °F 23.0 °F 72% 30.22 in 2.5 mi North 18.4 mph - 0.00 in Snow Light Snow
5:09 AM 30.0 °F 17.9 °F 24.1 °F 79% 30.21 in 1.2 mi North 18.4 mph - 0.00 in Snow Light Snow
5:53 AM 28.9 °F 18.2 °F 24.1 °F 82% 30.28 in 1.5 mi North 13.8 mph - 0.00 in Snow Light Snow
6:00 AM 30.0 °F 20.0 °F 24.1 °F 79% 30.26 in 3.0 mi North 12.7 mph - 0.00 in Snow Light Snow
6:07 AM 30.0 °F 19.1 °F 24.1 °F 79% 30.26 in 7.0 mi NNW 15.0 mph - 0.00 in Snow Light Snow
6:53 AM 30.0 °F 17.9 °F 21.0 °F 69% 30.28 in 10.0 mi North 18.4 mph - 0.00 in   Overcast
7:53 AM 28.9 °F 16.1 °F 19.9 °F 69% 30.30 in 10.0 mi North 19.6 mph - N/A   Overcast
8:53 AM 28.9 °F 17.3 °F 19.9 °F 69% 30.35 in 10.0 mi North 16.1 mph - N/A   Overcast
9:53 AM 30.0 °F 19.1 °F 19.0 °F 64% 30.39 in 10.0 mi North 15.0 mph - N/A   Overcast
10:53 AM 30.9 °F 18.7 °F 19.9 °F 64% 30.38 in 10.0 mi North 19.6 mph - N/A   Mostly Cloudy
11:53 AM 33.1 °F 21.9 °F 18.0 °F 54% 30.37 in 10.0 mi North 18.4 mph - N/A   Overcast
12:53 PM 36.0 °F 26.3 °F 17.1 °F 46% 30.34 in 10.0 mi NNW 16.1 mph - N/A   Mostly Cloudy
1:53 PM 36.0 °F 26.7 °F 16.0 °F 44% 30.32 in 10.0 mi NNW 15.0 mph 19.6 mph N/A   Partly Cloudy
2:53 PM 37.0 °F 28.9 °F 16.0 °F 42% 30.31 in 10.0 mi NNW 12.7 mph - N/A   Clear
3:53 PM 39.0 °F 30.3 °F 16.0 °F 39% 30.29 in 10.0 mi NNW 16.1 mph - N/A   Clear
4:53 PM 39.0 °F 31.4 °F 15.1 °F 38% 30.31 in 10.0 mi NNW 12.7 mph - N/A   Clear
5:53 PM 33.1 °F 26.9 °F 17.1 °F 52% 30.32 in 10.0 mi NNW 6.9 mph - N/A   Clear
6:53 PM 30.0 °F 25.2 °F 17.1 °F 59% 30.35 in 10.0 mi North 4.6 mph - N/A   Clear
7:53 PM 27.0 °F 19.5 °F 17.1 °F 66% 30.36 in 10.0 mi NW 6.9 mph - N/A   Clear
8:53 PM 28.0 °F - 16.0 °F 61% 30.35 in 10.0 mi Calm Calm - N/A   Clear
9:53 PM 27.0 °F 21.6 °F 16.0 °F 63% 30.37 in 10.0 mi NW 4.6 mph - N/A   Clear
10:53 PM 23.0 °F - 15.1 °F 72% 30.38 in 10.0 mi Calm Calm - N/A   Clear
11:53 PM 21.9 °F 17.2 °F 15.1 °F 75% 30.36 in 10.0 mi West 3.5 mph - N/A   Clear